• In Slovakia
  • List of Countries
  • For 7 days
  • Water Temperature
  • Satellite Maps
  • Weather Map
  • Weather Widgets
  • user-avatar
    Login

    Hourly Weather Adelaide

    Today, 17 November, Friday

    Time Temperature Precipitation Wind Pressure Humidity
    00:00 +13°C° 0.1 mm 5 mps 757 mmHg 83%
    01:00 +13°C° 0 mm 5 mps 757 mmHg 84%
    02:00 +13°C° 0 mm 6 mps 757 mmHg 84%
    03:00 +13°C° 0 mm 6 mps 756 mmHg 86%
    04:00 +14°C° 0.1 mm 6 mps 756 mmHg 86%
    05:00 +14°C° 0.1 mm 6 mps 756 mmHg 86%
    06:00 +14°C° 0.1 mm 6 mps 756 mmHg 86%
    07:00 +14°C° 0.1 mm 5 mps 756 mmHg 86%
    08:00 +14°C° 0.1 mm 5 mps 756 mmHg 86%
    09:00 +15°C° 0 mm 6 mps 756 mmHg 83%
    10:00 +15°C° 0.1 mm 5 mps 756 mmHg 83%
    11:00 +15°C° 0.1 mm 5 mps 756 mmHg 84%
    12:00 +15°C° 0.1 mm 5 mps 756 mmHg 84%
    13:00 +16°C° 0.1 mm 5 mps 756 mmHg 84%
    14:00 +16°C° 0.1 mm 5 mps 756 mmHg 84%
    15:00 +16°C° 0 mm 5 mps 756 mmHg 85%
    16:00 +16°C° 0 mm 5 mps 756 mmHg 86%
    17:00 +17°C° 0 mm 4 mps 756 mmHg 88%
    18:00 +17°C° 0 mm 4 mps 756 mmHg 89%
    19:00 +17°C° 0 mm 4 mps 757 mmHg 91%
    20:00 +17°C° 0 mm 3 mps 757 mmHg 92%
    21:00 +16°C° 0 mm 3 mps 757 mmHg 94%
    22:00 +16°C° 0 mm 2 mps 757 mmHg 94%
    23:00 +16°C° 0 mm 2 mps 757 mmHg 94%

    Tomorrow, 18 November, Saturday

    Time Temperature Precipitation Wind Pressure Humidity
    00:00 +16°C° 0 mm 2 mps 756 mmHg 93%
    01:00 +16°C° 0 mm 2 mps 756 mmHg 94%
    02:00 +15°C° 0 mm 2 mps 756 mmHg 94%
    03:00 +15°C° 0 mm 2 mps 756 mmHg 94%
    04:00 +15°C° 0 mm 2 mps 757 mmHg 93%
    05:00 +16°C° 0 mm 2 mps 757 mmHg 91%
    06:00 +16°C° 0 mm 1 mps 757 mmHg 90%
    07:00 +19°C° 0 mm 1 mps 757 mmHg 84%
    08:00 +19°C° 0 mm 2 mps 757 mmHg 78%
    09:00 +20°C° 0 mm 2 mps 758 mmHg 72%
    10:00 +21°C° 0 mm 2 mps 757 mmHg 66%
    11:00 +24°C° 0 mm 3 mps 757 mmHg 60%
    12:00 +25°C° 0 mm 3 mps 757 mmHg 53%
    13:00 +25°C° 0 mm 4 mps 757 mmHg 52%
    14:00 +26°C° 0 mm 4 mps 756 mmHg 50%
    15:00 +26°C° 0 mm 4 mps 756 mmHg 49%
    16:00 +25°C° 0 mm 4 mps 756 mmHg 53%
    17:00 +23°C° 0 mm 4 mps 756 mmHg 57%
    18:00 +22°C° 0 mm 4 mps 756 mmHg 62%
    19:00 +20°C° 0 mm 4 mps 757 mmHg 67%
    20:00 +19°C° 0 mm 4 mps 757 mmHg 73%
    21:00 +18°C° 0 mm 4 mps 757 mmHg 79%
    22:00 +18°C° 0 mm 3 mps 757 mmHg 80%
    23:00 +17°C° 0 mm 3 mps 757 mmHg 81%

    Day after tomorrow, 19 November, Sunday

    Time Temperature Precipitation Wind Pressure Humidity
    00:00 +17°C° 0 mm 3 mps 757 mmHg 82%
    01:00 +17°C° 0 mm 3 mps 756 mmHg 80%
    02:00 +17°C° 0 mm 3 mps 756 mmHg 79%
    03:00 +17°C° 0 mm 3 mps 756 mmHg 77%
    04:00 +18°C° 0 mm 3 mps 756 mmHg 72%
    05:00 +19°C° 0 mm 3 mps 757 mmHg 68%
    06:00 +20°C° 0 mm 4 mps 757 mmHg 63%
    07:00 +22°C° 0 mm 4 mps 757 mmHg 56%
    08:00 +26°C° 0 mm 4 mps 757 mmHg 48%
    09:00 +28°C° 0 mm 4 mps 757 mmHg 40%
    10:00 +30°C° 0 mm 4 mps 757 mmHg 36%
    11:00 +31°C° 0 mm 3 mps 757 mmHg 33%
    12:00 +33°C° 0 mm 3 mps 756 mmHg 29%
    13:00 +34°C° 0 mm 3 mps 756 mmHg 28%
    14:00 +34°C° 0 mm 4 mps 755 mmHg 27%
    15:00 +35°C° 0 mm 4 mps 755 mmHg 26%
    16:00 +33°C° 0 mm 4 mps 755 mmHg 29%
    17:00 +32°C° 0 mm 4 mps 755 mmHg 33%
    18:00 +29°C° 0 mm 4 mps 755 mmHg 36%
    19:00 +28°C° 0 mm 5 mps 756 mmHg 40%
    20:00 +27°C° 0 mm 5 mps 756 mmHg 43%
    21:00 +26°C° 0 mm 5 mps 756 mmHg 47%
    22:00 +26°C° 0 mm 5 mps 756 mmHg 46%
    23:00 +26°C° 0 mm 5 mps 756 mmHg 45%

    20 November, Monday

    Time Temperature Precipitation Wind Pressure Humidity
    00:00 +26°C° 0 mm 5 mps 756 mmHg 45%
    01:00 +26°C° 0 mm 5 mps 756 mmHg 45%
    02:00 +26°C° 0 mm 5 mps 757 mmHg 46%
    03:00 +25°C° 0 mm 5 mps 757 mmHg 47%
    04:00 +26°C° 0 mm 5 mps 757 mmHg 47%
    05:00 +26°C° 0 mm 5 mps 758 mmHg 47%
    06:00 +26°C° 0 mm 6 mps 758 mmHg 48%
    07:00 +28°C° 0 mm 6 mps 758 mmHg 43%
    08:00 +30°C° 0 mm 6 mps 758 mmHg 38%
    09:00 +32°C° 0 mm 6 mps 758 mmHg 33%
    10:00 +33°C° 0 mm 6 mps 758 mmHg 30%
    11:00 +34°C° 0 mm 6 mps 757 mmHg 28%
    12:00 +35°C° 0 mm 6 mps 757 mmHg 25%
    13:00 +36°C° 0 mm 5 mps 756 mmHg 25%
    14:00 +36°C° 0 mm 5 mps 756 mmHg 24%
    15:00 +36°C° 0 mm 5 mps 755 mmHg 23%
    16:00 +35°C° 0 mm 5 mps 756 mmHg 24%
    17:00 +34°C° 0 mm 5 mps 756 mmHg 26%
    18:00 +33°C° 0 mm 5 mps 756 mmHg 27%
    19:00 +32°C° 0 mm 5 mps 756 mmHg 29%
    20:00 +32°C° 0 mm 6 mps 757 mmHg 30%
    21:00 +30°C° 0 mm 6 mps 757 mmHg 32%
    22:00 +29°C° 0 mm 6 mps 757 mmHg 33%
    23:00 +28°C° 0 mm 6 mps 757 mmHg 34%

    21 November, Tuesday

    Time Temperature Precipitation Wind Pressure Humidity
    00:00 +28°C° 0 mm 5 mps 756 mmHg 35%
    01:00 +27°C° 0 mm 5 mps 756 mmHg 37%
    02:00 +26°C° 0 mm 5 mps 756 mmHg 38%
    03:00 +26°C° 0 mm 4 mps 756 mmHg 40%
    04:00 +26°C° 0 mm 5 mps 757 mmHg 40%
    05:00 +27°C° 0 mm 5 mps 757 mmHg 40%
    06:00 +28°C° 0 mm 5 mps 757 mmHg 40%
    07:00 +29°C° 0 mm 5 mps 757 mmHg 36%
    08:00 +32°C° 0 mm 5 mps 758 mmHg 32%
    09:00 +34°C° 0 mm 6 mps 758 mmHg 28%
    10:00 +34°C° 0 mm 5 mps 757 mmHg 27%
    11:00 +34°C° 0 mm 4 mps 757 mmHg 26%
    12:00 +35°C° 0 mm 4 mps 756 mmHg 25%
    13:00 +35°C° 0 mm 4 mps 756 mmHg 25%
    14:00 +35°C° 0 mm 3 mps 755 mmHg 24%
    15:00 +35°C° 0 mm 3 mps 755 mmHg 24%
    16:00 +34°C° 0 mm 3 mps 755 mmHg 25%
    17:00 +33°C° 0 mm 3 mps 755 mmHg 26%
    18:00 +31°C° 0 mm 3 mps 755 mmHg 28%
    19:00 +29°C° 0 mm 3 mps 755 mmHg 29%
    20:00 +28°C° 0 mm 3 mps 755 mmHg 30%
    21:00 +27°C° 0 mm 3 mps 755 mmHg 31%
    22:00 +27°C° 0 mm 3 mps 755 mmHg 30%
    23:00 +26°C° 0 mm 4 mps 754 mmHg 29%

    22 November, Wednesday

    Time Temperature Precipitation Wind Pressure Humidity
    00:00 +26°C° 0 mm 4 mps 754 mmHg 27%
    01:00 +26°C° 0 mm 4 mps 754 mmHg 28%
    02:00 +26°C° 0 mm 4 mps 754 mmHg 29%
    03:00 +26°C° 0 mm 5 mps 753 mmHg 30%
    04:00 +26°C° 0 mm 5 mps 754 mmHg 31%
    05:00 +27°C° 0 mm 4 mps 754 mmHg 33%
    06:00 +28°C° 0 mm 4 mps 755 mmHg 34%
    07:00 +29°C° 0 mm 4 mps 755 mmHg 31%
    08:00 +32°C° 0 mm 5 mps 755 mmHg 27%
    09:00 +34°C° 0 mm 5 mps 756 mmHg 24%
    10:00 +33°C° 0 mm 5 mps 756 mmHg 27%
    11:00 +32°C° 0 mm 4 mps 755 mmHg 30%
    12:00 +30°C° 0 mm 4 mps 755 mmHg 34%
    13:00 +29°C° 0 mm 4 mps 755 mmHg 37%
    14:00 +28°C° 0 mm 4 mps 755 mmHg 40%
    15:00 +28°C° 0 mm 4 mps 755 mmHg 43%
    16:00 +27°C° 0 mm 4 mps 755 mmHg 44%
    17:00 +27°C° 0 mm 4 mps 755 mmHg 45%
    18:00 +27°C° 0 mm 4 mps 756 mmHg 46%
    19:00 +26°C° 0 mm 3 mps 756 mmHg 48%
    20:00 +24°C° 0 mm 3 mps 756 mmHg 51%
    21:00 +22°C° 0 mm 3 mps 756 mmHg 54%
    22:00 +22°C° 0 mm 3 mps 756 mmHg 53%
    23:00 +24°C° 0 mm 3 mps 756 mmHg 51%
    Show more